• In Deutschland
  • Länderverzeichnis
  • Für 7 Tage
  • Wassertemperatur
  • Satellitenkarten
  • Wetterkarte
  • Widgets
  • user-avatar
    Anmelden

    Stündliche Wetter Nachiczewan

    Heute, 21 November, Dienstag

    Zeit Temperatur Niederschläge Wind Luftdruck Luftfeuchtigkeit
    00:00 +12°C° 0 mm 2 m/S 684 mmHg 55%
    01:00 +10°C° 0 mm 2 m/S 684 mmHg 56%
    02:00 +10°C° 0 mm 2 m/S 684 mmHg 57%
    03:00 +10°C° 0 mm 2 m/S 683 mmHg 62%
    04:00 +10°C° 0 mm 2 m/S 683 mmHg 63%
    05:00 +10°C° 0 mm 2 m/S 683 mmHg 64%
    06:00 +10°C° 0 mm 2 m/S 683 mmHg 65%
    07:00 +12°C° 0 mm 2 m/S 683 mmHg 62%
    08:00 +13°C° 0 mm 2 m/S 682 mmHg 60%
    09:00 +14°C° 0 mm 2 m/S 682 mmHg 57%
    10:00 +14°C° 0,2 mm 2 m/S 682 mmHg 57%
    11:00 +14°C° 0,2 mm 2 m/S 682 mmHg 57%
    12:00 +15°C° 0,2 mm 2 m/S 681 mmHg 58%
    13:00 +14°C° 0,2 mm 3 m/S 681 mmHg 57%
    14:00 +14°C° 0,2 mm 3 m/S 681 mmHg 57%
    15:00 +16°C° 0,2 mm 3 m/S 680 mmHg 57%
    16:00 +15°C° 0,1 mm 2 m/S 680 mmHg 60%
    17:00 +14°C° 0,1 mm 2 m/S 680 mmHg 63%
    18:00 +13°C° 0,1 mm 2 m/S 680 mmHg 66%
    19:00 +13°C° 0 mm 2 m/S 679 mmHg 67%
    20:00 +13°C° 0 mm 2 m/S 679 mmHg 68%
    21:00 +12°C° 0 mm 2 m/S 679 mmHg 68%
    22:00 +11°C° 0 mm 3 m/S 678 mmHg 70%
    23:00 +11°C° 0 mm 3 m/S 678 mmHg 71%

    Morgen, 22 November, Mittwoch

    Zeit Temperatur Niederschläge Wind Luftdruck Luftfeuchtigkeit
    00:00 +10°C° 0 mm 3 m/S 678 mmHg 73%
    01:00 +10°C° 0 mm 3 m/S 678 mmHg 74%
    02:00 +10°C° 0 mm 3 m/S 678 mmHg 75%
    03:00 +10°C° 0 mm 3 m/S 678 mmHg 76%
    04:00 +10°C° 0 mm 3 m/S 678 mmHg 76%
    05:00 +9°C° 0 mm 3 m/S 678 mmHg 76%
    06:00 +9°C° 0 mm 3 m/S 678 mmHg 77%
    07:00 +10°C° 0,2 mm 3 m/S 678 mmHg 74%
    08:00 +10°C° 0,2 mm 3 m/S 678 mmHg 71%
    09:00 +11°C° 0,2 mm 3 m/S 678 mmHg 68%
    10:00 +12°C° 0,2 mm 3 m/S 678 mmHg 64%
    11:00 +12°C° 0,2 mm 4 m/S 678 mmHg 61%
    12:00 +13°C° 0,2 mm 4 m/S 678 mmHg 57%
    13:00 +13°C° 0,4 mm 4 m/S 678 mmHg 54%
    14:00 +13°C° 0,4 mm 4 m/S 678 mmHg 51%
    15:00 +13°C° 0,4 mm 4 m/S 678 mmHg 48%
    16:00 +12°C° 0,2 mm 4 m/S 679 mmHg 53%
    17:00 +10°C° 0,2 mm 3 m/S 679 mmHg 58%
    18:00 +9°C° 0,2 mm 3 m/S 680 mmHg 63%
    19:00 +9°C° 0,2 mm 2 m/S 680 mmHg 64%
    20:00 +8°C° 0,2 mm 2 m/S 680 mmHg 65%
    21:00 +9°C° 0,2 mm 1 m/S 681 mmHg 66%
    22:00 +7°C° 0,2 mm 2 m/S 681 mmHg 66%
    23:00 +7°C° 0,2 mm 3 m/S 681 mmHg 65%

    übermorgen, 23 November, Donnerstag

    Zeit Temperatur Niederschläge Wind Luftdruck Luftfeuchtigkeit
    00:00 +5°C° 0,2 mm 3 m/S 681 mmHg 64%
    01:00 +4°C° 0,2 mm 3 m/S 682 mmHg 66%
    02:00 +4°C° 0,2 mm 3 m/S 682 mmHg 67%
    03:00 +3°C° 0,2 mm 3 m/S 682 mmHg 69%
    04:00 +4°C° 0,2 mm 2 m/S 682 mmHg 71%
    05:00 +3°C° 0,2 mm 2 m/S 683 mmHg 73%
    06:00 +4°C° 0,2 mm 1 m/S 683 mmHg 75%
    07:00 +4°C° 0 mm 1 m/S 683 mmHg 71%
    08:00 +3°C° 0 mm 2 m/S 684 mmHg 68%
    09:00 +3°C° 0 mm 2 m/S 684 mmHg 64%
    10:00 +4°C° 0 mm 2 m/S 684 mmHg 60%
    11:00 +5°C° 0 mm 2 m/S 684 mmHg 55%
    12:00 +6°C° 0 mm 2 m/S 684 mmHg 51%
    13:00 +6°C° 0 mm 2 m/S 684 mmHg 48%
    14:00 +5°C° 0 mm 3 m/S 683 mmHg 46%
    15:00 +7°C° 0 mm 3 m/S 683 mmHg 44%
    16:00 +6°C° 0 mm 2 m/S 684 mmHg 47%
    17:00 +6°C° 0 mm 2 m/S 684 mmHg 49%
    18:00 +5°C° 0 mm 2 m/S 684 mmHg 51%
    19:00 +5°C° 0 mm 2 m/S 684 mmHg 52%
    20:00 +5°C° 0 mm 2 m/S 684 mmHg 52%
    21:00 +6°C° 0 mm 1 m/S 685 mmHg 52%
    22:00 +5°C° 0 mm 2 m/S 685 mmHg 53%
    23:00 +5°C° 0 mm 2 m/S 685 mmHg 54%

    24 November, Freitag

    Zeit Temperatur Niederschläge Wind Luftdruck Luftfeuchtigkeit
    00:00 +4°C° 0 mm 2 m/S 685 mmHg 55%
    01:00 +4°C° 0,2 mm 2 m/S 684 mmHg 58%
    02:00 +4°C° 0,2 mm 2 m/S 684 mmHg 62%
    03:00 +3°C° 0,2 mm 2 m/S 684 mmHg 65%
    04:00 +3°C° 0,4 mm 2 m/S 684 mmHg 71%
    05:00 +2°C° 0,4 mm 2 m/S 685 mmHg 76%
    06:00 +2°C° 0,4 mm 2 m/S 685 mmHg 82%
    07:00 +2°C° 0,4 mm 2 m/S 685 mmHg 82%
    08:00 +2°C° 0,4 mm 2 m/S 685 mmHg 82%
    09:00 +3°C° 0,4 mm 1 m/S 686 mmHg 82%
    10:00 +3°C° 0,2 mm 1 m/S 686 mmHg 79%
    11:00 +3°C° 0,2 mm 1 m/S 685 mmHg 75%
    12:00 +4°C° 0,2 mm 1 m/S 685 mmHg 71%
    13:00 +4°C° 0 mm 1 m/S 685 mmHg 68%
    14:00 +4°C° 0 mm 1 m/S 685 mmHg 65%
    15:00 +4°C° 0 mm 1 m/S 685 mmHg 62%
    16:00 +4°C° 0 mm 1 m/S 686 mmHg 64%
    17:00 +3°C° 0 mm 1 m/S 686 mmHg 67%
    18:00 +1°C° 0 mm 0 m/S 687 mmHg 69%
    19:00 +2°C° 0 mm 1 m/S 687 mmHg 68%
    20:00 +2°C° 0 mm 1 m/S 688 mmHg 67%
    21:00 +1°C° 0 mm 1 m/S 688 mmHg 66%
    22:00 +1°C° 0 mm 1 m/S 688 mmHg 65%
    23:00 +1°C° 0 mm 1 m/S 688 mmHg 65%

    25 November, Samstag

    Zeit Temperatur Niederschläge Wind Luftdruck Luftfeuchtigkeit
    00:00 +1°C° 0 mm 1 m/S 689 mmHg 64%
    01:00 +1°C° 0,1 mm 1 m/S 689 mmHg 64%
    02:00 +1°C° 0,1 mm 1 m/S 689 mmHg 65%
    03:00 +1°C° 0,1 mm 1 m/S 689 mmHg 65%
    04:00 0°C° 0 mm 1 m/S 690 mmHg 66%
    05:00 0°C° 0 mm 1 m/S 690 mmHg 67%
    06:00 0°C° 0 mm 1 m/S 690 mmHg 68%
    07:00 0°C° 0 mm 1 m/S 691 mmHg 66%
    08:00 +1°C° 0 mm 1 m/S 691 mmHg 63%
    09:00 -1°C° 0 mm 2 m/S 692 mmHg 60%
    10:00 -1°C° 0 mm 2 m/S 692 mmHg 57%
    11:00 +1°C° 0 mm 2 m/S 692 mmHg 54%
    12:00 0°C° 0 mm 3 m/S 692 mmHg 51%
    13:00 0°C° 0 mm 3 m/S 692 mmHg 51%
    14:00 0°C° 0 mm 3 m/S 692 mmHg 50%
    15:00 +1°C° 0 mm 2 m/S 692 mmHg 49%
    16:00 +1°C° 0 mm 2 m/S 693 mmHg 52%
    17:00 +1°C° 0 mm 1 m/S 694 mmHg 55%
    18:00 0°C° 0 mm 1 m/S 694 mmHg 58%
    19:00 -1°C° 0 mm 1 m/S 695 mmHg 58%
    20:00 -1°C° 0 mm 1 m/S 695 mmHg 58%
    21:00 -1°C° 0 mm 1 m/S 696 mmHg 58%
    22:00 -1°C° 0 mm 1 m/S 696 mmHg 58%
    23:00 -1°C° 0 mm 1 m/S 696 mmHg 58%

    26 November, Sonntag

    Zeit Temperatur Niederschläge Wind Luftdruck Luftfeuchtigkeit
    00:00 -2°C° 0 mm 1 m/S 696 mmHg 57%
    01:00 -2°C° 0 mm 1 m/S 696 mmHg 57%
    02:00 -2°C° 0 mm 1 m/S 696 mmHg 56%
    03:00 -2°C° 0 mm 1 m/S 696 mmHg 56%
    04:00 -2°C° 0 mm 1 m/S 696 mmHg 55%
    05:00 -2°C° 0 mm 1 m/S 695 mmHg 54%
    06:00 -2°C° 0 mm 1 m/S 695 mmHg 53%
    07:00 -1°C° 0 mm 1 m/S 695 mmHg 50%
    08:00 0°C° 0 mm 1 m/S 695 mmHg 48%
    09:00 +1°C° 0 mm 1 m/S 695 mmHg 45%
    10:00 +2°C° 0 mm 1 m/S 695 mmHg 43%
    11:00 +2°C° 0 mm 1 m/S 694 mmHg 41%
    12:00 +3°C° 0 mm 1 m/S 694 mmHg 39%
    13:00 +4°C° 0 mm 1 m/S 693 mmHg 39%
    14:00 +4°C° 0 mm 1 m/S 693 mmHg 40%
    15:00 +4°C° 0 mm 1 m/S 693 mmHg 40%
    16:00 +3°C° 0 mm 1 m/S 693 mmHg 43%
    17:00 +2°C° 0 mm 1 m/S 693 mmHg 46%
    18:00 +1°C° 0 mm 1 m/S 693 mmHg 49%
    19:00 +1°C° 0 mm 1 m/S 693 mmHg 48%
    20:00 +1°C° 0 mm 1 m/S 693 mmHg 46%
    21:00 +1°C° 0 mm 1 m/S 693 mmHg 45%
    22:00 0°C° 0 mm 1 m/S 693 mmHg 44%
    23:00 0°C° 0 mm 1 m/S 693 mmHg 43%
    Mehr zeigen